This is the latest recevied weather packets stored in our database for station/object E25DQY-1. If no packets are shown the sender has not sent any weather packets the latest 10 day(s).
| Time | Temp. | Humidity | Pressure | Rain* | Wind** | Luminosity | Snow |
|---|---|---|---|---|---|---|---|
| 1788267794 | 34.44° C | 53% | 1006 hPa | - | - | 0 W/m² | - |
| 1788265972 | 34.44° C | 51% | 1005 hPa | - | - | 0 W/m² | - |
| 1788264150 | 34.44° C | 50% | 1005 hPa | - | - | 0 W/m² | - |
| 1788262328 | 35.56° C | 49% | 1005 hPa | - | - | 0 W/m² | - |
| 1788260506 | 36.11° C | 48% | 1004 hPa | - | - | 0 W/m² | - |
| 1788258684 | 37.22° C | 46% | 1004 hPa | - | - | 0 W/m² | - |
| 1788256861 | 37.78° C | 45% | 1003 hPa | - | - | 0 W/m² | - |
| 1788255040 | 38.33° C | 45% | 1003 hPa | - | - | 0 W/m² | - |
| 1788253217 | 38.89° C | 45% | 1003 hPa | - | - | 0 W/m² | - |
| 1788251395 | 38.89° C | 45% | 1004 hPa | - | - | 0 W/m² | - |
| 1788249573 | 38.89° C | 44% | 1004 hPa | - | - | 0 W/m² | - |
| 1788247751 | 40° C | 42% | 1005 hPa | - | - | 0 W/m² | - |
| 1788245929 | 39.44° C | 43% | 1005 hPa | - | - | 0 W/m² | - |
| 1788244106 | 38.89° C | 47% | 1005 hPa | - | - | 0 W/m² | - |
| 1788242284 | 39.44° C | 48% | 1006 hPa | - | - | 0 W/m² | - |
| 1788240462 | 39.44° C | 48% | 1006 hPa | - | - | 0 W/m² | - |
| 1788238640 | 38.89° C | 49% | 1006 hPa | - | - | 0 W/m² | - |
| 1788236818 | 38.89° C | 51% | 1007 hPa | - | - | 0 W/m² | - |
| 1788234996 | 38.33° C | 53% | 1007 hPa | - | - | 0 W/m² | - |
| 1788233174 | 36.67° C | 57% | 1007 hPa | - | - | 0 W/m² | - |
| 1788231352 | 35.56° C | 60% | 1007 hPa | - | - | 0 W/m² | - |
| 1788229530 | 34.44° C | 63% | 1007 hPa | - | - | 0 W/m² | - |
| 1788227708 | 33.33° C | 65% | 1007 hPa | - | - | 0 W/m² | - |
| 1788225886 | 32.22° C | 67% | 1006 hPa | - | - | 0 W/m² | - |
| 1788224064 | 31.11° C | 68% | 1006 hPa | - | - | 0 W/m² | - |
* Rain since midnight (hover to see other rain measurements)
** Current wind speed in m/s (hover to see current wind gust speed)